W4TTU-1 Weather Reports


time (UTC)temp
C
wind
direction
speed
KPH
gust
KPH
rain 1hr
cm
rain 24hr
cm
rain mn
cm
humidity
%
barometer
mb
20260906223203 36 270 6.4 16.1 0.00 0.00 0.00 29 842.8
20260906221702 36 270 3.2 8.0 0.00 0.00 0.00 29 843.0
20260906220202 36 270 3.2 11.3 0.00 0.00 0.00 29 843.2
20260906213158 37 270 8.0 9.7 0.00 0.00 0.00 29 843.5
20260906211657 37 270 4.8 11.3 0.00 0.00 0.00 29 843.5
20260906210157 37 270 9.7 11.3 0.00 0.00 0.00 30 843.6
20260906204656 37 270 8.0 12.9 0.00 0.00 0.00 31 843.9
20260906203156 37 270 6.4 11.3 0.00 0.00 0.00 31 844.1
20260906201655 36 270 4.8 12.9 0.00 0.00 0.00 32 844.2
20260906200155 35 270 4.8 11.3 0.00 0.00 0.00 34 844.5
20260906194654 33 270 3.2 9.7 0.00 0.00 0.00 35 844.6
20260906193154 33 270 8.0 11.3 0.00 0.00 0.00 36 844.7
20260906191653 32 270 9.7 11.3 0.00 0.00 0.00 36 845.0
20260906190152 31 270 3.2 9.7 0.00 0.00 0.00 36 845.2
20260906184652 29 270 1.6 4.8 0.00 0.00 0.00 38 845.4
20260906183151 28 270 1.6 8.0 0.00 0.00 0.00 40 845.7
20260906181651 27 270 6.4 6.4 0.00 0.00 0.00 42 846.0
20260906180150 25 270 4.8 4.8 0.00 0.00 0.00 45 846.3
20260906174650 23 270 1.6 8.0 0.00 0.00 0.00 47 846.6
20260906173149 22 270 1.6 3.2 0.00 0.00 0.00 49 846.8
20260906171649 21 270 0.0 6.4 0.00 0.00 0.00 50 847.1
20260906170148 20 270 1.6 3.2 0.00 0.00 0.00 51 847.4
20260906164648 18 270 3.2 3.2 0.00 0.00 0.00 51 847.4
20260906163147 18 270 1.6 1.6 0.00 0.00 0.00 52 847.6
20260906161647 17 270 0.0 3.2 0.00 0.00 0.00 53 847.8
20260906160146 16 270 0.0 1.6 0.00 0.00 0.00 52 848.0
20260906154646 16 270 0.0 4.8 0.00 0.00 0.00 51 848.0
20260906153145 15 270 0.0 1.6 0.00 0.00 0.00 46 848.0
20260906151645 14 270 1.6 1.6 0.00 0.00 0.00 45 848.3
20260906150144 14 270 0.0 1.6 0.00 0.00 0.00 45 848.4
20260906144643 13 270 1.6 1.6 0.00 0.00 0.00 45 848.5
20260906143143 12 270 0.0 1.6 0.00 0.00 0.00 44 848.6
20260906141642 12 270 1.6 3.2 0.00 0.00 0.00 41 848.7
20260906140142 12 270 3.2 4.8 0.00 0.00 0.00 40 848.9
20260906134641 12 270 1.6 1.6 0.00 0.00 0.00 38 848.8
20260906133141 12 270 0.0 0.0 0.00 0.00 0.00 38 848.7
20260906131640 12 270 0.0 1.6 0.00 0.00 0.00 39 848.7
20260906130140 12 270 0.0 0.0 0.00 0.00 0.00 38 848.7
20260906124639 12 270 1.6 3.2 0.00 0.00 0.00 37 848.8
20260906123139 12 270 0.0 0.0 0.00 0.00 0.00 38 848.9
20260906121638 12 270 0.0 3.2 0.00 0.00 0.00 38 848.7
20260906120138 13 270 1.6 1.6 0.00 0.00 0.00 37 848.8
20260906114638 13 270 0.0 1.6 0.00 0.00 0.00 38 848.7
20260906113137 13 270 0.0 3.2 0.00 0.00 0.00 37 848.9
20260906111636 13 270 0.0 0.0 0.00 0.00 0.00 36 848.7
20260906110136 13 270 0.0 0.0 0.00 0.00 0.00 37 848.7
20260906104635 14 270 0.0 0.0 0.00 0.00 0.00 36 848.9
20260906103135 14 270 0.0 0.0 0.00 0.00 0.00 36 848.6
20260906101634 15 270 0.0 0.0 0.00 0.00 0.00 36 848.5
20260906100133 15 270 0.0 0.0 0.00 0.00 0.00 36 848.4
20260906094633 15 270 0.0 0.0 0.00 0.00 0.00 35 848.3
20260906093132 15 270 0.0 3.2 0.00 0.00 0.00 35 848.2
20260906091632 16 270 0.0 1.6 0.00 0.00 0.00 35 848.2
20260906090131 16 270 0.0 0.0 0.00 0.00 0.00 34 848.2
20260906084631 16 270 0.0 1.6 0.00 0.00 0.00 34 848.2
20260906083130 16 270 0.0 1.6 0.00 0.00 0.00 34 848.3
20260906081630 16 270 0.0 3.2 0.00 0.00 0.00 33 848.8
20260906080129 17 270 0.0 0.0 0.00 0.00 0.00 32 848.5
20260906074629 17 270 0.0 0.0 0.00 0.00 0.00 33 848.4
20260906073129 17 270 0.0 1.6 0.00 0.00 0.00 33 848.3
20260906071628 17 270 0.0 1.6 0.00 0.00 0.00 33 848.2
20260906070127 18 270 0.0 1.6 0.00 0.00 0.00 32 848.2
20260906064627 18 270 0.0 0.0 0.00 0.00 0.00 32 848.4
20260906063126 18 270 0.0 1.6 0.00 0.00 0.00 32 848.4
20260906061626 19 270 0.0 0.0 0.00 0.00 0.00 32 848.4
20260906060125 19 270 0.0 4.8 0.00 0.00 0.00 32 848.2
20260906054624 20 270 0.0 1.6 0.00 0.00 0.00 31 848.2
20260906053124 20 270 1.6 3.2 0.00 0.00 0.00 31 848.2
20260906051623 21 270 1.6 6.4 0.00 0.00 0.00 29 848.0
20260906050123 21 270 0.0 3.2 0.00 0.00 0.00 29 848.1
20260906044622 22 270 1.6 1.6 0.00 0.00 0.00 29 848.1
20260906043122 22 270 0.0 1.6 0.00 0.00 0.00 27 848.1
20260906041621 23 270 0.0 4.8 0.00 0.00 0.00 28 848.1
20260906040121 24 270 0.0 3.2 0.00 0.00 0.00 27 848.2
20260906034620 25 270 0.0 4.8 0.00 0.00 0.00 26 848.0
20260906033120 26 270 4.8 4.8 0.00 0.00 0.00 26 847.9
20260906031619 27 270 0.0 3.2 0.00 0.00 0.00 25 847.7
20260906030119 28 270 4.8 4.8 0.00 0.00 0.00 24 847.7
20260906024618 29 270 0.0 4.8 0.00 0.00 0.00 23 847.5
20260906023118 31 270 0.0 3.2 0.00 0.00 0.00 23 847.3
20260906021617 32 270 3.2 6.4 0.00 0.00 0.00 22 847.1
20260906020117 33 270 0.0 3.2 0.00 0.00 0.00 21 846.9
20260906014616 35 270 1.6 4.8 0.00 0.00 0.00 22 846.9
20260906013116 37 270 6.4 6.4 0.00 0.00 0.00 21 846.8
20260906011615 38 270 3.2 4.8 0.00 0.00 0.00 21 846.9
20260906010114 39 270 6.4 6.4 0.00 0.00 0.00 22 846.8
20260906004614 40 270 6.4 6.4 0.00 0.00 0.00 22 846.7
20260906003113 40 270 4.8 9.7 0.00 0.00 0.00 21 846.6
20260906001613 41 270 6.4 9.7 0.00 0.00 0.00 22 846.6
20260906000113 41 270 4.8 17.7 0.00 0.00 0.00 22 846.6
20260905234612 41 270 4.8 12.9 0.00 0.00 0.00 21 846.7
20260905233111 41 270 3.2 8.0 0.00 0.00 0.00 21 846.6
20260905231611 41 270 4.8 9.7 0.00 0.00 0.00 21 846.7
20260905230110 41 270 8.0 9.7 0.00 0.00 0.00 22 846.7
20260905224610 41 270 4.8 11.3 0.00 0.00 0.00 22 846.8